Weather History for Meriden, CT

Change the Weather History Date:

Sunday, February 10, 2013

  Actual Average (KHVN) Record (KHVN)
Temperature  
Mean Temperature 16 °F -  
Max Temperature 37 °F 37 °F 30 °F (2014)
Min Temperature -5 °F 24 °F 19 °F (2014)
Degree Days  
Heating Degree Days 49    
Moisture  
Dew Point 3 °F    
Average Humidity 57    
Maximum Humidity 92    
Minimum Humidity 19    
Precipitation  
Precipitation 0.00 in - - ()
Sea Level Pressure  
Sea Level Pressure 30.39 in    
Wind  
Wind Speed 3 mph (NW)    
Max Wind Speed 10 mph    
Max Gust Speed -    
Visibility 10 miles    
Events      
Averages and records for this station are not official NWS values.
T = Trace of Precipitation, MM = Missing Value Source: NWS Daily Summary

Daily Weather History Graph

Daily Weather History Graph

Search for Another Location

Airport:

Trip Planner

Search our weather history database for the weather conditions in past years. The results will help you decide how hot, cold, wet, or windy it might be!

Date:

Astronomy

Feb. 10, 2013 Rise Set
Actual Time 6:52 AM EST 5:19 PM EST
Civil Twilight 6:23 AM EST 5:47 PM EST
Nautical Twilight 5:51 AM EST 6:20 PM EST
Astronomical Twilight 5:19 AM EST 6:52 PM EST
Moon 6:39 AM EST (2/10) 6:07 PM EST (2/10)
Length of Visible Light 11h 23m
Length of Day
10h 26m
New Moon, 0% of the Moon is Illuminated
Feb 10
New Moon
Feb 17
First Quarter
Feb 25
Full
Mar 4
Last Quarter
Mar 11
New

Hourly Weather History & Observations

Time (EST) Temp. Windchill Dew Point Humidity Pressure Visibility Wind Dir Wind Speed Gust Speed Precip Events Conditions
12:53 AM 17.1 °F 6.6 °F -0.9 °F 45% 30.31 in 10.0 mi WNW 8.1 mph - N/A   Clear
1:53 AM 15.1 °F - -2.0 °F 47% 30.32 in 10.0 mi Calm Calm - N/A   Clear
2:53 AM 16.0 °F 7.4 °F -2.0 °F 45% 30.32 in 10.0 mi NNW 5.8 mph - N/A   Clear
3:53 AM 15.1 °F 6.4 °F -2.9 °F 45% 30.35 in 10.0 mi NW 5.8 mph - N/A   Clear
4:53 AM 3.9 °F - -4.0 °F 70% 30.36 in 10.0 mi Calm Calm - N/A   Clear
5:53 AM -0.9 °F - -5.1 °F 83% 30.39 in 10.0 mi Calm Calm - N/A   Clear
6:53 AM -5.1 °F - -9.0 °F 83% 30.42 in 10.0 mi Calm Calm - N/A   Clear
7:53 AM 3.9 °F -3.4 °F -0.0 °F 84% 30.43 in 10.0 mi North 3.5 mph - N/A   Clear
8:53 AM 19.9 °F 10.1 °F -2.9 °F 37% 30.44 in 10.0 mi NW 8.1 mph - N/A   Clear
9:53 AM 24.1 °F 13.7 °F -2.9 °F 31% 30.45 in 10.0 mi NNW 10.4 mph - N/A   Clear
10:53 AM 28.9 °F 22.8 °F -2.0 °F 26% 30.46 in 10.0 mi North 5.8 mph - 0.00 in   Clear
11:53 AM 33.1 °F - -2.9 °F 21% 30.44 in 9.0 mi Calm Calm - 0.00 in   Clear
12:53 PM 35.1 °F - -4.0 °F 19% 30.40 in 9.0 mi Calm Calm - 0.00 in   Clear
1:53 PM 36.0 °F - -0.9 °F 21% 30.38 in 10.0 mi Calm Calm - N/A   Clear
2:53 PM 37.0 °F - 3.0 °F 24% 30.38 in 10.0 mi Calm Calm - N/A   Clear
3:53 PM 33.1 °F 26.9 °F 8.1 °F 35% 30.38 in 10.0 mi SSE 6.9 mph - N/A   Clear
4:53 PM 30.9 °F 24.3 °F 12.0 °F 46% 30.38 in 10.0 mi South 6.9 mph - N/A   Clear
5:53 PM 25.0 °F - 12.9 °F 60% 30.39 in 10.0 mi Calm Calm - N/A   Clear
6:53 PM 17.1 °F - 12.0 °F 81% 30.40 in 10.0 mi Calm Calm - N/A   Clear
7:53 PM 16.0 °F - 10.0 °F 77% 30.40 in 10.0 mi Calm Calm - N/A   Clear
8:53 PM 12.9 °F - 8.1 °F 81% 30.40 in 10.0 mi Calm Calm - N/A   Clear
9:53 PM 10.9 °F - 6.1 °F 81% 30.38 in 10.0 mi Calm Calm - N/A   Clear
10:19 PM 10.4 °F - 6.8 °F 85% 30.37 in 4.0 mi Calm Calm - N/A   Scattered Clouds
10:53 PM 12.0 °F - 9.0 °F 88% 30.38 in 9.0 mi Calm Calm - N/A   Clear
11:29 PM 12.2 °F - 10.4 °F 92% 30.34 in 10.0 mi Calm Calm - N/A   Partly Cloudy
11:53 PM 15.1 °F - 10.9 °F 84% 30.36 in 7.0 mi Calm Calm - N/A   Clear